Location: Comps
(46.4333°N, 3.1500°E)
Time: 04:21:37
(UTC+00:00)

Daily predictions for brighter satellites

Satellite Brightness Start Highest point End
(mag) Time Altitude Azimuth Time Altitude Azimuth Time Altitude Azimuth
USA 234 4.1 02:36:41 10° NE 02:41:14 44° NNE 02:41:14 44° NNE
ADEOS Rocket 4.2 02:49:43 10° SE 02:54:35 34° ENE 02:59:34 10° N
Cosmos 2344 3.6 02:56:53 68° SE 02:56:57 68° ESE 03:04:48 10° NE
NOSS 3-2 (C) 3.6 03:21:46 60° SE 03:21:54 60° ESE 03:28:13 10° NE
MSX 4.1 03:22:16 10° NNE 03:26:51 59° N 03:26:51 59° N
CZ-4B R/B 4.4 03:26:14 10° ESE 03:28:32 17° ENE 03:30:17 12° NNE
Cosmos 44 Rocket 4.0 03:29:14 56° NE 03:29:14 56° NE 03:34:12 10° SE
Cosmos 1980 Rocket 4.3 03:25:15 10° N 03:29:35 22° NE 03:33:54 10° E
CENTAUR R/B 2.5 03:35:39 63° S 03:36:33 74° SE 03:43:34 10° NE
ARIANE 5 R/B 4.5 03:34:50 10° N 03:36:09 18° N 03:36:09 18° N
ERS-2 3.5 03:44:27 10° SE 03:47:31 37° E 03:47:31 37° E
CZ-3 R/B 4.4 03:43:26 22° SW 03:57:34 35° S 04:06:27 10° SE
ALOS 3.7 03:54:05 10° NNE 03:58:25 37° E 04:02:44 10° SSE
Cosmos 2180 Rocket 4.4 03:53:10 10° N 03:59:28 89° W 04:05:40 10° S
Nadezhda 4 Rocket 4.5 03:56:43 10° S 04:02:40 58° E 04:08:41 10° NNE
Abrixas rocket 4.2 04:06:51 25° ENE 04:06:51 25° ENE 04:08:16 10° E
CZ-2C R/B 2.2 04:00:56 10° NNE 04:05:58 82° WNW 04:07:18 49° SSW
ISS -2.1 04:07:10 29° SE 04:07:10 29° SE 04:10:03 10° E
Lacrosse 4 Rocket 1.3 04:08:01 81° ENE 04:08:01 81° ENE 04:11:57 10° NNE
ADEOS 4.3 04:03:24 10° NNE 04:08:31 52° E 04:13:35 10° S
USA 238 DEB 3.7 04:07:03 47° W 04:08:36 57° NW 04:15:27 10° NE
USA 238 3.7 04:07:07 47° W 04:08:42 58° NW 04:15:34 10° NE
Cosmos 1833 Rocket 3.2 04:03:38 10° S 04:09:09 57° ESE 04:14:42 10° NNE
In-Cosmos 22 4.0 04:09:21 52° SW 04:10:27 65° WNW 04:15:52 10° N
PAYLOAD A 3.9 04:05:56 10° N 04:10:58 67° WNW 04:12:20 47° SW
Cosmos 1025 Rocket 4.1 04:14:23 31° NNW 04:14:23 31° NNW 04:16:57 10° N
NOSS 3-2 (A) 3.7 04:11:54 44° WNW 04:12:55 48° NW 04:19:22 10° NE
Cosmos 1302 Rocket 3.9 04:12:05 24° NNW 04:15:23 73° WSW 04:20:38 10° SSE
Cosmos 1674 3.2 04:16:30 46° N 04:16:30 46° N 04:19:19 10° N
Cosmos 1484 Rocket 3.5 04:13:20 10° NNE 04:17:09 52° E 04:20:52 10° S
Cosmos 1269 Rocket 3.9 04:15:37 41° SW 04:17:29 71° WNW 04:22:49 10° NNE
IDEFIX/ARIANE 42P 4.2 04:14:31 10° N 04:16:34 19° NNW 04:16:34 19° NNW
Cosmos 2369 4.0 04:13:53 10° NNW 04:19:33 68° ENE 04:25:10 10° SE
Cosmos 2228 3.8 04:15:38 10° N 04:19:55 53° ENE 04:24:12 10° SSE
Cosmos 1606 Rocket 4.4 04:17:28 10° N 04:21:52 53° ENE 04:26:14 10° SSE
Geosat 3.9 04:17:27 10° SSE 04:22:27 72° WSW 04:25:54 21° NW
ATLAS 3B R/B 3.4 04:16:30 10° SSW 04:22:48 51° ESE 04:29:10 10° NE
Cosmos 1626 2.7 04:21:04 10° S 04:24:41 58° E 04:28:20 10° NNE
USA 234 4.1 04:19:33 10° ENE 04:25:25 36° N 04:28:35 23° NW
Meteor 1-16 Rocket 4.2 04:20:36 10° NNW 04:25:43 49° W 04:30:49 10° SSW
Cosmos 2082 Rocket 3.2 04:22:26 10° S 04:27:44 46° ESE 04:33:05 10° NE
COSMO-SKYMED 1 3.7 04:25:34 10° SE 04:29:41 44° ENE 04:33:50 10° N
Cosmos 1656 3.9 04:31:28 25° NW 04:34:30 47° WSW 04:39:54 10° S
SL-16 R/B 4.4 04:30:28 10° N 04:34:52 22° NE 04:39:15 10° E
Cosmos 2279 Rocket 4.3 04:29:33 10° NNW 04:35:13 39° W 04:40:52 10° SSW
Lacrosse 5 rocket 1.3 04:35:54 34° SSW 04:37:20 66° SE 04:41:05 10° NE
Meteor 2-5 Rocket 3.9 04:32:29 10° S 04:38:09 80° E 04:43:59 10° NNE
ADEOS Rocket 3.2 04:35:06 10° SSW 04:40:08 36° W 04:45:15 10° NNW
Meteor 1-31 Rocket 3.0 04:37:14 10° NNE 04:41:12 73° ESE 04:45:07 10° S
CREW DRAGON DEMO-1 DEB 4.0 04:42:58 29° NNW 04:43:32 31° N 04:46:17 10° ENE
SJ-6F 4.4 04:41:26 10° N 04:45:27 55° WNW 04:49:28 10° SSW
COSMOS 2406 3.2 04:41:41 16° SW 04:46:16 61° WNW 04:51:54 10° NNE
deb Kosmos-1763 4.0 04:42:56 10° SSW 04:46:32 79° ESE 04:50:08 10° NNE
Cosmos 1536 Rocket 4.3 04:49:09 30° W 04:49:26 30° WNW 04:53:24 10° N
Cosmos 2058 Rocket 3.9 04:47:20 10° N 04:51:47 55° ENE 04:56:10 10° SSE
Cosmos 220 Rocket 3.9 04:47:36 10° NNW 04:52:04 75° WSW 04:56:28 10° SSE
deb Chang Zheng 4 3.4 04:47:51 10° N 04:52:06 75° WNW 04:56:21 10° SSW
CZ-4B R/B 3.8 04:47:51 10° NNE 04:52:08 85° WNW 04:56:12 10° SSW
Cosmos 1697 Rocket 2.7 04:46:45 10° NNW 04:52:19 61° WSW 04:57:52 10° S
Cosmos 1992 Rocket 3.9 04:51:06 10° NNW 04:56:19 78° WSW 05:01:31 10° SSE
Cosmos 2026 Rocket 4.3 04:53:47 10° S 05:00:08 76° E 05:06:31 10° NNE
CZ-4B R/B 2.0 04:57:20 10° SSW 05:00:32 35° W 05:03:24 12° NNW
ARGOS Delta rocket 4.1 04:56:28 10° N 05:01:52 86° WNW 05:07:21 10° SSW
Cosmos 1892 Rocket 3.6 04:59:37 10° S 05:03:57 84° E 05:08:21 10° N
Cosmos 2195 Rocket 4.5 04:58:25 10° S 05:04:39 88° W 05:10:52 10° N
FENGYUN 3A 3.7 05:00:25 10° N 05:05:44 57° WNW 05:11:02 10° SSW
Cosmos 1400 Rocket 2.6 05:04:20 10° NNW 05:08:18 77° W 05:12:11 10° S
Cosmos 44 Rocket 4.4 05:08:01 19° WNW 05:10:21 25° WSW 05:14:33 10° SSW
Cosmos 2344 4.3 05:06:55 17° W 05:12:05 37° NNW 05:19:55 10° NE
NOSS 3-2 (C) 4.2 05:09:15 17° W 05:13:11 36° NNW 05:19:23 10° NNE
Cosmos 1980 Rocket 2.1 05:08:36 10° NNW 05:14:12 75° WSW 05:19:47 10° SSE
SKYMED 2 3.6 05:13:26 10° S 05:17:43 59° W 05:22:02 10° NNW
Cosmos 2251 Rocket 3.5 05:12:29 10° SSW 05:17:51 75° WNW 05:23:13 10° NNE
SL-19 R/B 3.9 05:15:30 10° N 05:18:10 39° WNW 05:20:51 10° SW
SJ-12 3.9 05:16:37 10° N 05:20:42 62° WNW 05:24:44 10° SSW
MOS 1 Rocket 4.3 05:17:13 10° SE 05:21:18 43° ENE 05:25:22 10° N
ERS-2 3.7 05:19:12 10° SW 05:21:33 16° W 05:22:05 16° W
Okean O Rocket 4.3 05:21:07 10° NE 05:24:40 24° E 05:28:12 10° SSE
Cosmos 1461 3.2 05:22:10 10° SW 05:26:39 57° NW 05:31:21 10° NNE
CENTAUR R/B 3.5 05:22:52 13° W 05:27:56 34° NNW 05:34:37 10° NE
Cosmos 614 Rocket 4.3 05:23:42 10° SSW 05:28:49 72° ESE 05:33:57 10° NNE
Cosmos 1626 Rocket 4.5 05:25:17 10° S 05:29:37 55° E 05:34:00 10° NNE
TELKOM 3 4.0 05:27:25 10° WSW 05:30:43 83° SSE 05:34:51 10° ENE
SL-14 R/B 4.2 05:29:30 10° SW 05:32:59 28° WNW 05:36:29 10° NNW
ALOS 3.2 05:31:46 10° N 05:35:41 27° WNW 05:39:37 10° WSW
Cosmos 1315 Rocket 3.1 05:33:20 10° N 05:37:27 77° ENE 05:41:35 10° SSE
Cosmos 2278 4.0 05:35:08 10° NW 05:40:29 45° WSW 05:45:50 10° S
Abrixas rocket 2.1 05:38:01 11° WNW 05:40:38 57° SSW 05:43:26 10° ESE
Cosmos 1092 Rocket 4.3 05:35:51 10° SW 05:41:40 43° WNW 05:47:36 10° N
Cosmos 1300 3.8 05:38:37 10° NW 05:41:41 23° W 05:44:45 10° SW
Elektron 1 4.0 05:39:20 10° WSW 05:42:18 46° NW 05:45:12 10° NE
Cosmos 1689 Rocket 3.4 05:40:18 10° SSW 05:42:37 21° W 05:44:56 10° NW
Aureole 3 4.0 05:39:11 10° NNW 05:42:59 42° W 05:47:43 10° SSW
CZ-2C R/B 4.2 05:41:10 10° NNW 05:43:20 13° NW 05:45:28 10° W
ISS -3.6 05:40:25 10° WSW 05:43:44 57° NNW 05:47:04 10° ENE
Cosmos 1726 Rocket 4.5 05:40:39 10° NNW 05:44:26 28° W 05:48:12 10° SSW
Cosmos 2322 Rocket 3.1 05:39:17 10° NNW 05:44:51 51° ENE 05:50:20 10° SE
USA 290 3.1 05:43:40 10° WSW 05:46:31 28° WNW 05:49:25 10° N
Lacrosse 4 Rocket 3.1 05:44:49 10° WNW 05:47:08 15° NW 05:49:29 10° N
Cosmos 2098 Rocket 3.8 05:43:44 10° S 05:50:01 87° ESE 05:55:03 10° N
